Location: LDNL
(36.4545°S, 141.6685°E)
Time: 22:16:42
(UTC+11:00)

Transit 2A - Visible Passes

Search period start: 30 January 2023 00:00
Search period end: 09 February 2023 00:00
Orbit: 594 x 962 km, 66.7° (Epoch: 29 January)

Date Brightness Start Highest point End Pass type
(mag) Time Alt. Az. Time Alt. Az. Time Alt. Az.
01 Feb 8.3 05:52:35 10° NNE 05:57:23 25° ENE 06:01:56 10° SE visible
02 Feb 8.7 05:19:26 10° NE 05:23:03 17° ENE 05:26:32 10° ESE visible
03 Feb 9.0 04:48:05 10° ENE 04:48:45 10° ENE 04:49:26 10° E visible
04 Feb 6.8 05:50:55 10° N 05:56:49 57° ENE 06:02:15 10° SE visible
05 Feb 7.4 05:16:51 10° N 05:22:23 38° ENE 05:27:31 10° SE visible
06 Feb 8.0 04:43:47 13° NNE 04:47:58 26° ENE 04:52:32 10° SE visible
06 Feb 6.7 06:25:19 10° NW 06:30:57 43° WSW 06:36:09 10° SSE visible
07 Feb 8.4 04:10:54 13° NE 04:13:37 17° ENE 04:17:11 10° ESE visible
07 Feb 6.3 05:51:24 15° NW 05:56:24 64° WSW 06:01:49 10° SSE visible
08 Feb 8.7 03:38:05 10° ENE 03:39:18 11° ENE 03:40:31 10° E visible
08 Feb 6.2 05:18:24 26° NNW 05:21:52 88° ENE 05:27:22 10° SSE visible
